Radiation Dose at Monitoring Post of Fukushima Daini Nuclear Power Station
Date,Time,MP-1(microSv/h),MP-2(microSv/h),MP-3(microSv/h),MP-4(microSv/h),MP-5(microSv/h),MP-6(microSv/h),MP-7(microSv/h),Wind Direction,Wind Velocity(m/s),Rain
2015/02/22,00:00,0.534,0.327,0.552,0.504,0.541,0.251,0.225,south,5.7,No
2015/02/22,00:10,0.536,0.325,0.549,0.502,0.544,0.251,0.223,south,6.2,No
2015/02/22,00:20,0.536,0.326,0.550,0.501,0.544,0.251,0.224,south,5.6,No
2015/02/22,00:30,0.537,0.325,0.548,0.503,0.542,0.251,0.224,south,6.7,No
2015/02/22,00:40,0.536,0.326,0.549,0.503,0.540,0.253,0.223,south,6.3,No
2015/02/22,00:50,0.536,0.327,0.548,0.503,0.542,0.251,0.224,south-southwest,7.2,No
2015/02/22,01:00,0.535,0.327,0.550,0.503,0.543,0.252,0.224,south,7.0,No
2015/02/22,01:10,0.537,0.326,0.551,0.500,0.543,0.251,0.225,south,6.2,No
2015/02/22,01:20,0.535,0.326,0.549,0.504,0.543,0.251,0.224,south,6.4,No
2015/02/22,01:30,0.535,0.326,0.550,0.503,0.543,0.252,0.223,south,6.7,No
2015/02/22,01:40,0.537,0.325,0.551,0.501,0.543,0.252,0.223,south,6.9,No
2015/02/22,01:50,0.536,0.324,0.550,0.503,0.543,0.251,0.224,south,6.4,No
2015/02/22,02:00,0.537,0.325,0.552,0.502,0.541,0.251,0.224,south,7.1,No
2015/02/22,02:10,0.534,0.325,0.550,0.503,0.544,0.252,0.224,south,6.7,No
2015/02/22,02:20,0.536,0.327,0.551,0.501,0.543,0.251,0.224,south,7.1,No
2015/02/22,02:30,0.536,0.327,0.547,0.502,0.544,0.251,0.224,south,7.2,No
2015/02/22,02:40,0.536,0.327,0.550,0.502,0.543,0.251,0.224,south,6.9,No
2015/02/22,02:50,0.537,0.326,0.550,0.503,0.542,0.251,0.224,south,7.0,No
2015/02/22,03:00,0.538,0.326,0.552,0.503,0.544,0.251,0.223,south,7.8,No
2015/02/22,03:10,0.536,0.326,0.550,0.502,0.543,0.251,0.223,south,7.5,No
2015/02/22,03:20,0.537,0.326,0.550,0.502,0.541,0.251,0.223,south,6.5,No
2015/02/22,03:30,0.539,0.327,0.550,0.503,0.542,0.252,0.223,south,6.6,No
2015/02/22,03:40,0.536,0.326,0.550,0.504,0.543,0.251,0.224,south,6.9,No
2015/02/22,03:50,0.537,0.326,0.549,0.502,0.544,0.251,0.224,south,7.0,No
2015/02/22,04:00,0.535,0.327,0.550,0.501,0.543,0.251,0.223,south,7.0,No
2015/02/22,04:10,0.536,0.326,0.551,0.502,0.542,0.251,0.222,south,7.3,No
2015/02/22,04:20,0.536,0.326,0.552,0.503,0.545,0.251,0.224,south,7.5,No
2015/02/22,04:30,0.535,0.326,0.550,0.501,0.544,0.252,0.225,south,6.7,No
2015/02/22,04:40,0.538,0.326,0.549,0.502,0.541,0.251,0.223,south,6.9,No
2015/02/22,04:50,0.536,0.327,0.550,0.503,0.542,0.252,0.223,south,6.4,No
2015/02/22,05:00,0.535,0.326,0.550,0.505,0.542,0.251,0.225,south,7.0,No
2015/02/22,05:10,0.537,0.328,0.550,0.502,0.543,0.251,0.223,south,7.4,No
2015/02/22,05:20,0.539,0.327,0.550,0.502,0.541,0.250,0.224,south,7.3,No
2015/02/22,05:30,0.536,0.326,0.551,0.504,0.542,0.251,0.223,south,7.9,No
2015/02/22,05:40,0.535,0.325,0.551,0.504,0.545,0.252,0.224,south,7.6,No
2015/02/22,05:50,0.538,0.326,0.550,0.503,0.543,0.253,0.223,south,7.4,No
2015/02/22,06:00,0.536,0.327,0.552,0.502,0.542,0.253,0.223,south,7.4,No
2015/02/22,06:10,0.536,0.326,0.552,0.503,0.542,0.252,0.223,south,6.9,No
2015/02/22,06:20,0.537,0.325,0.549,0.505,0.543,0.252,0.225,south,6.7,No
2015/02/22,06:30,0.537,0.327,0.550,0.503,0.545,0.251,0.223,south,7.9,No
2015/02/22,06:40,0.536,0.327,0.552,0.503,0.541,0.252,0.224,south,7.2,No
2015/02/22,06:50,0.534,0.325,0.552,0.502,0.542,0.252,0.224,south,6.4,No
2015/02/22,07:00,0.538,0.327,0.551,0.505,0.543,0.251,0.223,south-southwest,7.3,No
2015/02/22,07:10,0.538,0.325,0.549,0.502,0.543,0.250,0.223,south-southwest,6.5,No
2015/02/22,07:20,0.537,0.327,0.552,0.503,0.541,0.250,0.224,south-southwest,6.9,No
2015/02/22,07:30,0.535,0.327,0.551,0.502,0.541,0.251,0.223,south-southwest,6.9,No
2015/02/22,07:40,0.539,0.327,0.549,0.505,0.543,0.251,0.223,south,5.3,No
2015/02/22,07:50,0.536,0.326,0.550,0.503,0.544,0.251,0.223,south,5.8,No
2015/02/22,08:00,0.537,0.328,0.551,0.502,0.543,0.252,0.223,south,5.9,No
2015/02/22,08:10,0.539,0.327,0.553,0.504,0.542,0.252,0.225,south-southwest,7.0,No
2015/02/22,08:20,0.536,0.326,0.550,0.504,0.544,0.252,0.222,south,6.3,No
2015/02/22,08:30,0.537,0.327,0.551,0.502,0.543,0.252,0.224,south,5.3,No
2015/02/22,08:40,0.537,0.326,0.553,0.501,0.542,0.251,0.224,south,5.6,No
2015/02/22,08:50,0.538,0.326,0.550,0.503,0.544,0.252,0.225,south,6.2,No
2015/02/22,09:00,0.534,0.327,0.551,0.504,0.543,0.252,0.224,south,5.3,No
2015/02/22,09:10,0.538,0.326,0.551,0.501,0.540,0.251,0.223,south,5.6,No
2015/02/22,09:20,0.536,0.325,0.551,0.504,0.546,0.251,0.224,south,4.1,No
2015/02/22,09:30,0.537,0.326,0.549,0.505,0.543,0.253,0.225,south,5.0,No
2015/02/22,09:40,0.539,0.327,0.551,0.503,0.543,0.253,0.223,south,5.7,No
2015/02/22,09:50,0.536,0.327,0.550,0.503,0.545,0.252,0.224,south,6.4,No
2015/02/22,10:00,0.538,0.326,0.548,0.505,0.544,0.252,0.224,south,6.2,No
2015/02/22,10:10,0.536,0.327,0.551,0.502,0.543,0.252,0.223,south,7.1,No
2015/02/22,10:20,0.536,0.326,0.550,0.502,0.545,0.252,0.226,south,6.9,No
2015/02/22,10:30,0.538,0.327,0.550,0.502,0.543,0.251,0.223,south,7.6,No
2015/02/22,10:40,0.534,0.326,0.552,0.503,0.544,0.251,0.225,south,6.4,No
2015/02/22,10:50,0.536,0.326,0.549,0.502,0.544,0.252,0.224,south,7.4,No
2015/02/22,11:00,0.537,0.327,0.550,0.504,0.541,0.252,0.225,south-southwest,8.1,No
2015/02/22,11:10,0.536,0.327,0.552,0.503,0.548,0.252,0.225,south,7.7,No
2015/02/22,11:20,0.540,0.327,0.550,0.506,0.545,0.252,0.225,south,6.9,No
2015/02/22,11:30,0.537,0.327,0.551,0.503,0.544,0.252,0.223,south,5.9,No
2015/02/22,11:40,0.536,0.325,0.553,0.504,0.547,0.252,0.225,south,6.3,No
2015/02/22,11:50,0.539,0.327,0.551,0.505,0.544,0.253,0.226,south,5.3,No
2015/02/22,12:00,0.537,0.329,0.552,0.504,0.545,0.252,0.224,south,4.9,No
2015/02/22,12:10,0.539,0.326,0.551,0.504,0.546,0.252,0.225,south,5.1,No
2015/02/22,12:20,0.537,0.327,0.550,0.502,0.543,0.253,0.224,south,6.3,No
2015/02/22,12:30,0.537,0.326,0.552,0.504,0.545,0.252,0.225,south,5.2,No
2015/02/22,12:40,0.539,0.326,0.551,0.505,0.544,0.252,0.224,south,5.1,No
2015/02/22,12:50,0.536,0.328,0.550,0.505,0.542,0.252,0.224,south,5.6,No
2015/02/22,13:00,0.538,0.327,0.553,0.505,0.546,0.254,0.224,south,5.0,No
2015/02/22,13:10,0.538,0.326,0.550,0.505,0.545,0.251,0.225,south,6.3,No
2015/02/22,13:20,0.536,0.328,0.549,0.504,0.545,0.252,0.225,south-southwest,7.9,No
2015/02/22,13:30,0.538,0.326,0.553,0.507,0.544,0.253,0.226,south-southwest,7.7,No
2015/02/22,13:40,0.536,0.327,0.552,0.503,0.545,0.251,0.223,south,7.6,No
2015/02/22,13:50,0.538,0.328,0.554,0.505,0.548,0.253,0.225,south,5.9,No
2015/02/22,14:00,0.535,0.327,0.553,0.507,0.542,0.252,0.223,south-southwest,4.9,No
2015/02/22,14:10,0.536,0.327,0.550,0.505,0.545,0.252,0.225,south,3.5,No
2015/02/22,14:20,0.539,0.326,0.553,0.504,0.546,0.253,0.225,south-southwest,5.0,No
2015/02/22,14:30,0.537,0.328,0.551,0.507,0.544,0.252,0.224,south-southwest,3.9,No
2015/02/22,14:40,0.540,0.328,0.550,0.505,0.545,0.251,0.224,south,4.8,No
2015/02/22,14:50,0.537,0.327,0.551,0.503,0.544,0.253,0.226,south,5.3,No
2015/02/22,15:00,0.536,0.327,0.551,0.506,0.546,0.252,0.226,south,4.8,No
2015/02/22,15:10,0.539,0.328,0.552,0.505,0.544,0.253,0.224,south,4.5,No
2015/02/22,15:20,0.537,0.328,0.553,0.504,0.546,0.252,0.225,south,4.5,No
2015/02/22,15:30,0.538,0.328,0.551,0.506,0.545,0.251,0.225,south,4.8,No
2015/02/22,15:40,0.540,0.328,0.551,0.505,0.547,0.252,0.225,south,4.9,No
2015/02/22,15:50,0.537,0.327,0.554,0.503,0.545,0.253,0.224,south,5.4,No
2015/02/22,16:00,0.537,0.328,0.551,0.506,0.545,0.253,0.225,south,5.3,Yes
2015/02/22,16:10,0.538,0.328,0.551,0.506,0.545,0.253,0.224,south,5.6,No
2015/02/22,16:20,0.536,0.328,0.554,0.502,0.545,0.252,0.224,south,4.8,No
2015/02/22,16:30,0.539,0.327,0.551,0.505,0.546,0.251,0.224,south,4.2,Yes
2015/02/22,16:40,0.538,0.328,0.551,0.506,0.545,0.253,0.224,south,2.4,No
2015/02/22,16:50,0.538,0.329,0.554,0.504,0.546,0.253,0.225,south,2.6,Yes
2015/02/22,17:00,0.539,0.327,0.551,0.506,0.544,0.253,0.225,south,3.4,Yes
2015/02/22,17:10,0.537,0.327,0.552,0.506,0.545,0.253,0.224,south,4.2,Yes
2015/02/22,17:20,0.537,0.330,0.554,0.504,0.546,0.252,0.227,south,3.2,Yes
2015/02/22,17:30,0.540,0.327,0.552,0.505,0.543,0.253,0.224,south,4.5,Yes
2015/02/22,17:40,0.536,0.329,0.551,0.505,0.544,0.253,0.226,south,5.3,Yes
2015/02/22,17:50,0.540,0.329,0.554,0.504,0.546,0.253,0.224,south,4.4,Yes
2015/02/22,18:00,0.538,0.328,0.552,0.503,0.544,0.253,0.223,south,4.2,Yes
2015/02/22,18:10,0.535,0.327,0.550,0.506,0.542,0.252,0.224,south-southwest,4.7,Yes
2015/02/22,18:20,0.537,0.329,0.552,0.504,0.543,0.252,0.225,south-southwest,5.4,Yes
2015/02/22,18:30,0.535,0.326,0.552,0.503,0.544,0.252,0.225,south,5.3,Yes
2015/02/22,18:40,0.535,0.326,0.549,0.502,0.540,0.253,0.225,south,6.3,Yes
2015/02/22,18:50,0.539,0.328,0.552,0.503,0.544,0.252,0.225,south,6.4,Yes
2015/02/22,19:00,0.536,0.327,0.552,0.503,0.543,0.253,0.224,south,6.7,No
2015/02/22,19:10,0.535,0.326,0.551,0.503,0.543,0.252,0.224,south,5.6,No
2015/02/22,19:20,0.538,0.328,0.552,0.504,0.543,0.251,0.225,south-southeast,5.0,No
2015/02/22,19:30,0.535,0.326,0.551,0.502,0.544,0.252,0.223,south-southeast,5.9,No
2015/02/22,19:40,0.535,0.327,0.551,0.502,0.542,0.252,0.224,south,5.9,No
2015/02/22,19:50,0.536,0.327,0.549,0.503,0.543,0.252,0.223,south,5.5,No
2015/02/22,20:00,0.535,0.327,0.551,0.502,0.545,0.251,0.224,south,4.8,No
2015/02/22,20:10,0.537,0.327,0.551,0.501,0.542,0.253,0.223,south,5.3,Yes
2015/02/22,20:20,0.536,0.327,0.551,0.504,0.543,0.253,0.224,south-southwest,6.7,Yes
2015/02/22,20:30,0.534,0.326,0.550,0.503,0.543,0.252,0.224,south-southwest,7.2,Yes
2015/02/22,20:40,0.536,0.325,0.550,0.503,0.540,0.252,0.224,south-southwest,7.3,Yes
2015/02/22,20:50,0.537,0.329,0.551,0.504,0.542,0.253,0.223,south-southwest,8.8,Yes
2015/02/22,21:00,0.535,0.328,0.551,0.500,0.545,0.252,0.225,south-southwest,9.3,Yes
2015/02/22,21:10,0.537,0.328,0.550,0.502,0.543,0.252,0.223,south-southwest,9.6,Yes
2015/02/22,21:20,0.535,0.330,0.554,0.505,0.547,0.254,0.226,south-southwest,9.2,Yes
2015/02/22,21:30,0.536,0.328,0.551,0.507,0.546,0.253,0.225,south-southwest,10.1,Yes
2015/02/22,21:40,0.538,0.329,0.551,0.504,0.544,0.255,0.227,south-southwest,11.0,Yes
2015/02/22,21:50,0.536,0.330,0.552,0.506,0.546,0.255,0.225,south,7.5,Yes
2015/02/22,22:00,0.537,0.328,0.552,0.504,0.546,0.253,0.226,south-southwest,8.0,Yes
2015/02/22,22:10,0.538,0.330,0.550,0.504,0.544,0.253,0.225,south-southwest,9.0,Yes
2015/02/22,22:20,0.538,0.331,0.550,0.503,0.545,0.256,0.226,south-southwest,9.0,Yes
2015/02/22,22:30,0.538,0.329,0.554,0.504,0.545,0.254,0.226,south-southwest,10.7,Yes
2015/02/22,22:40,0.537,0.329,0.551,0.503,0.543,0.254,0.227,south-southwest,10.3,Yes
2015/02/22,22:50,0.536,0.329,0.550,0.506,0.545,0.254,0.225,south-southwest,10.0,Yes
2015/02/22,23:00,0.537,0.327,0.553,0.504,0.544,0.254,0.227,south-southwest,10.7,Yes
2015/02/22,23:10,0.535,0.328,0.548,0.504,0.542,0.254,0.224,south-southwest,9.5,Yes
2015/02/22,23:20,0.535,0.328,0.551,0.504,0.545,0.254,0.226,south-southwest,9.4,Yes
2015/02/22,23:30,0.538,0.328,0.550,0.506,0.544,0.252,0.225,south-southwest,9.5,Yes
2015/02/22,23:40,0.537,0.327,0.549,0.503,0.542,0.254,0.226,south-southwest,9.4,Yes
2015/02/22,23:50,0.535,0.328,0.549,0.503,0.543,0.254,0.226,south-southwest,9.8,Yes
